Tracking 28793 objects as of 21-Apr-2024
HD Live streaming from Space Station
objects crossing your sky now

FLOCK 3S 1

Track FLOCK 3S 1 now!
10-day predictions
FLOCK 3S 1 is classified as:


NORAD ID: 43769
Int'l Code: 2018-099M
Perigee: 536.6 km
Apogee: 556.8 km
Inclination: 97.5 °
Period: 95.4 minutes
Semi major axis: 6917 km
RCS: Unknown
Launch date: December 3, 2018
Source: United States (US)
Launch site: AIR FORCE WESTERN TEST RANGE (AFWTR)
Your satellite tracking list
Your tracking list is empty




NASA's NSSDC Master Catalog

Two Line Element Set (TLE):
1 43769U 18099M   24111.67567460  .00032404  00000-0  20463-2 0  9996
2 43769  97.5098 169.8234 0014637 164.0014 196.1680 15.08906397293978
Source of the keplerian elements: AFSPC